Regional Weather Roundup
Issued by NWS

Home | Current Version | Previous Version | Text Only | Print | Product List | Glossary On
Versions: 1 2 3 4 5 6 7 8 9 10 11 12 13 14 15 16 17 18 19 20 21 22 23 24 25 26 27 28 29 30 31 32 33 34 35 36 37 38 39 40 41 42 43 44 45 46 47 48 49 50
000
ASUS43 KMKX 142120
RWRWI

WISCONSIN REGIONAL WEATHER ROUNDUP
NATIONAL WEATHER SERVICE MILWAUKEE/SULLIVAN WI
300 PM CST SUN FEB 14 2016

NOTE: "FAIR" INDICATES FEW OR NO CLOUDS BELOW 12,000 FEET WITH NO
SIGNIFICANT WEATHER AND/OR OBSTRUCTIONS TO VISIBILITY.

WIZ001-002-006>008-014>016-023>028-142200-
NORTHWEST WISCONSIN

CITY           SKY/WX    TMP DP  RH WIND       PRES   REMARKS
SUPERIOR ARPT  CLOUDY    17   7  66 S9        29.96F WCI   5
ASHLAND        CLOUDY    21   6  52 S9G18     29.97F WCI  11
HAYWARD        CLOUDY    16   5  62 S14       29.94F WCI   2
SIREN          CLOUDY    18   7  61 S12       29.94F WCI   6
CUMBERLAND     FLURRIES  16   9  73 SE13      29.93F WCI   2
RICE LAKE      FLURRIES  17   9  70 SE14G20   29.98S WCI   3
CHETEK         FLURRIES  16   8  72 SE13G18   29.98F WCI   2
LADYSMITH      FLURRIES  19   8  60 S12G18    29.99F WCI   7
EAU CLAIRE     CLOUDY    17   8  67 SE14G23   29.98F WCI   3
MENOMONIE      FLURRIES  21  10  63 E13       29.98F WCI   9
NEW RICHMOND   FLURRIES  19   9  66 S13       29.93F WCI   6
OSCEOLA        FLURRIES  19  11  69 S15       29.96F WCI   5
$$

WIZ003>005-009-010-017-018-142200-
NORTH CENTRAL WISCONSIN

CITY           SKY/WX    TMP DP  RH WIND       PRES   REMARKS
MANITOWISH WTR CLOUDY    18  -3  39 S12G20    29.94F WCI   6
ARBOR VITAE    CLOUDY    22   0  39 S16       29.95F WCI   8
WOODRUFF       CLOUDY    22   0  39 S16       29.95F WCI   8
RHINELANDER    CLOUDY    19   2  47 SE13G22   29.98F WCI   6
EAGLE RIVER    SUNNY     21  -2  36 S12G20    29.96F WCI   9
LAND O LAKES   SUNNY     22   1  39 SE16G23   29.97F WCI   9
PHILLIPS       CLOUDY    18   4  54 S17       29.95F WCI   3
TOMAHAWK       CLOUDY    20   1  43 SE8       29.99F WCI  10
MEDFORD        LGT SNOW  16   7  65 SE13      29.98F WCI   3
MERRILL        CLOUDY    20  -3  37 SE15G23   30.03S WCI   6
$$

WIZ029-030-035-036-043>047-142200-
CENTRAL WISCONSIN

CITY           SKY/WX    TMP DP  RH WIND       PRES   REMARKS
WAUSAU         CLOUDY    19   3  49 SE13      30.02F WCI   6
MOSINEE        LGT SNOW  18   7  62 SE16      30.03F WCI   3
MARSHFIELD     LGT SNOW  15   8  73 SE12      30.00F WCI   2
STEVENS POINT  LGT SNOW  15   9  75 SE13      30.05F WCI   1
WAUPACA        LGT SNOW  21  13  70 SE12      30.09F WCI   9
WAUTOMA        LGT SNOW  18  12  79 SE9       30.07F WCI   6
WISC RAPIDS    LGT SNOW  16   8  71 SE12      30.05F WCI   3
CAMP DOUGLAS   LGT SNOW  18  14  86 SE17      30.01F FOG     WCI   2
$$

WIZ011>013-019>022-031-037>040-048>050-142200-
NORTHEAST WISCONSIN

CITY           SKY/WX    TMP DP  RH WIND       PRES   REMARKS
ANTIGO         CLOUDY    17   6  61 S18       30.02F WCI   1
SHAWANO        FLURRIES  22  14  70 SE9G16    30.11F WCI  12
OCONTO         CLOUDY    17  13  84 SE8       30.15F WCI   7
STURGEON BAY   CLOUDY    19  10  68 S16G22    30.17F WCI   5
GREEN BAY      CLOUDY    20  13  74 S17       30.14F WCI   5
MANITOWOC      FLURRIES  21  14  74 SE18G24   30.16F WCI   6
APPLETON       FLURRIES  21  12  68 SE16G22   30.08F WCI   7
CLINTONVILLE   CLOUDY    21  12  68 S18       30.10F WCI   6
OSHKOSH        LGT SNOW  19  13  77 SE13      30.09F WCI   6
$$

WIZ032>034-041-042-053>061-142200-
SOUTHWEST WISCONSIN

CITY           SKY/WX    TMP DP  RH WIND       PRES   REMARKS
LA CROSSE      CLOUDY    19   9  65 SE17      30.00F WCI   4
SPARTA         FLURRIES  19  10  69 SE10      30.02F WCI   7
VIROQUA        CLOUDY    17  11  77 SE13      29.96F WCI   3
BOSCOBEL       LGT SNOW  18  12  77 E9        30.04F VSB 1   WCI   7
PRAIRIE DU CHI MIX PCPN  19  11  70 SE9       30.00F WCI   8
PLATTEVILLE    CLOUDY    18  13  79 SE16G26   29.99F WCI   4
$$

WIZ056-057-062-063-064-067-068-142200-
SOUTH CENTRAL WISCONSIN

CITY           SKY/WX    TMP DP  RH WIND       PRES   REMARKS
REEDSBURG      LGT SNOW  16  10  78 SE8       30.03F WCI   5
BARABOO/DELLS  LGT SNOW  16  10  76 SE14      30.03F WCI   1
LONE ROCK      LGT SNOW  17  11  77 E12       30.05F WCI   4
MINERAL POINT  LGT SNOW  19  14  79 SE15G25   29.98F WCI   5
MADISON        LGT SNOW  15  10  80 SE15      30.05F WCI   0
MIDDLETON      CLOUDY    17  12  79 E10       30.05F WCI   5
WATERTOWN      LGT SNOW  17  14  88 SE10      30.09S WCI   5
MONROE         LGT SNOW  18  12  79 SE14G22   30.01F WCI   4
JANESVILLE     LGT SNOW  18  12  79 SE13      30.08F WCI   4
$$

WIZ051-052-058>065-066-070>072-142200-
SOUTHEAST WISCONSIN

CITY           SKY/WX    TMP DP  RH WIND       PRES   REMARKS
MILWAUKEE      LGT SNOW  20  15  81 SE15      30.12F VSB 1   WCI   6
WAUKESHA       LGT SNOW  16  12  86 SE12      30.11F VSB 3/4 WCI   3
MILWAUKEE/TIMM LGT SNOW  18  12  79 SE10G17   30.13F VSB 1   WCI   6
RACINE         LGT SNOW  20  15  81 SE13      30.13F VSB 3/4 WCI   7
BURLINGTON     LGT SNOW  15  11  83 SE7       30.11F WCI   5
KENOSHA        LGT SNOW  18  14  84 SE13      30.12F VSB 3/4 WCI   5
FOND DU LAC    LGT SNOW  19  14  81 SE12      30.09F WCI   7
SHEBOYGAN      CLOUDY    20  12  71 SE14G22   30.14F WCI   7
WEST BEND      LGT SNOW  19  16  86 SE8       30.11F WCI   9
JUNEAU         LGT SNOW  17  13  84 E14       30.09F WCI   3
$$

LSZ147-162-142200-
LAKE SUPERIOR

STATION/POSITION TIME  TEMP    WIND        PRES    WAVE
                       AIR SEA DIR/SP/G            HT/PER
                 (UTC) (F)     (DEG/KT/KT) (MB)    (FT/S)
DEVILS ISLAND    2100   19     150/  3/  5 1016.7F
SAXON HARBOR     2000                      1015.6F
$$

LMZ867-665-643>646-142200-
LAKE MICHIGAN

STATION/POSITION TIME  TEMP    WIND        PRES    WAVE
                       AIR SEA DIR/SP/G            HT/PER
                 (UTC) (F)     (DEG/KT/KT) (MB)    (FT/S)
CHAMBERS ISLAND  2000   16      10/  5/  6 1022.0F
KEWAUNEE LAKESHO 2000   21     160/ 19/ 26 1021.4F
SHEBOYGAN LAKESH 2100   21     140/ 22/ 26 1022.3F
PORT WASHINGTON  2001   23     150/ 19/ 23 1022.4F
MILWAUKEE LAKESH 2010   21     160/ 18/ 20   N/A
KENOSHA   LAKESH 2100   20     150/ 20/ 23 1020.0F
$$

TC  - TEMPERATURE IN CELSIUS
VSB - VISIBILITY IN STATUTE MILES
WCI - WIND CHILL INDEX
HX  - HEAT INDEX




USA.gov is the U.S. government's official web portal to all federal, state and local government web resources and services.